| time (UTC) | temp F | wind direction | speed knots | gust knots | rain 1hr in | rain 24hr in | rain mn in | humidity % | barometer mb |
| 20260504050507 | 55 | 232 | 13.9 | 19.1 | 0.00 | 0.00 | 0.00 | 58 | 1006.1 |
| 20260504050007 | 55 | 240 | 13.9 | 19.1 | 0.00 | 0.00 | 0.00 | 58 | 1006.1 |
| 20260504045008 | 55 | 240 | 12.2 | 17.4 | 0.00 | 0.00 | 0.00 | 58 | 1006.1 |
| 20260504044007 | 55 | 235 | 13.0 | 17.4 | 0.00 | 0.00 | 0.00 | 58 | 1007.1 |
| 20260504043508 | 55 | 238 | 13.9 | 17.4 | 0.00 | 0.00 | 0.00 | 58 | 1006.1 |
| 20260504043008 | 55 | 237 | 12.2 | 19.1 | 0.00 | 0.00 | 0.00 | 58 | 1006.1 |
| 20260504042507 | 56 | 224 | 13.9 | 19.1 | 0.00 | 0.00 | 0.00 | 58 | 1006.1 |
| 20260504042008 | 55 | 247 | 13.9 | 19.1 | 0.00 | 0.00 | 0.00 | 58 | 1006.1 |
| 20260504041507 | 55 | 225 | 13.0 | 15.6 | 0.00 | 0.00 | 0.00 | 59 | 1006.1 |
| 20260504041007 | 56 | 239 | 13.9 | 15.6 | 0.00 | 0.00 | 0.00 | 59 | 1006.2 |
| 20260504040508 | 56 | 237 | 13.9 | 15.6 | 0.00 | 0.00 | 0.00 | 59 | 1006.1 |
| 20260504035506 | 56 | 240 | 13.9 | 15.6 | 0.00 | 0.00 | 0.00 | 59 | 1006.1 |
| 20260504035007 | 55 | 236 | 12.2 | 15.6 | 0.00 | 0.00 | 0.00 | 59 | 1006.1 |
| 20260504033507 | 55 | 232 | 10.4 | 13.9 | 0.00 | 0.00 | 0.00 | 60 | 1006.6 |
| 20260504033007 | 55 | 231 | 10.4 | 13.9 | 0.00 | 0.00 | 0.00 | 60 | 1007.1 |
| 20260504032507 | 55 | 220 | 10.4 | 13.9 | 0.00 | 0.00 | 0.00 | 61 | 1007.1 |
| 20260504032008 | 55 | 233 | 11.3 | 13.9 | 0.00 | 0.00 | 0.00 | 61 | 1007.1 |
| 20260504031507 | 55 | 243 | 10.4 | 13.9 | 0.00 | 0.00 | 0.00 | 61 | 1007.1 |
| 20260504031007 | 55 | 230 | 12.2 | 13.9 | 0.00 | 0.00 | 0.00 | 61 | 1007.1 |
| 20260504030507 | 55 | 231 | 10.4 | 13.9 | 0.00 | 0.00 | 0.00 | 62 | 1007.1 |
| 20260504030007 | 55 | 234 | 10.4 | 13.9 | 0.00 | 0.00 | 0.00 | 62 | 1007.1 |
| 20260504025506 | 55 | 228 | 10.4 | 13.9 | 0.00 | 0.00 | 0.00 | 63 | 1007.1 |
| 20260504025008 | 55 | 237 | 12.2 | 13.9 | 0.00 | 0.00 | 0.00 | 63 | 1007.1 |
| 20260504024506 | 55 | 234 | 10.4 | 12.2 | 0.00 | 0.00 | 0.00 | 65 | 1007.1 |
| 20260504024008 | 55 | 233 | 10.4 | 12.2 | 0.00 | 0.00 | 0.00 | 65 | 1007.1 |
| 20260504023507 | 55 | 232 | 10.4 | 12.2 | 0.00 | 0.00 | 0.00 | 66 | 1007.1 |
| 20260504023008 | 54 | 229 | 7.8 | 10.4 | 0.00 | 0.00 | 0.00 | 68 | 1007.1 |
| 20260504022507 | 54 | 223 | 7.8 | 10.4 | 0.00 | 0.00 | 0.00 | 69 | 1007.1 |
| 20260504022007 | 54 | 223 | 7.8 | 10.4 | 0.00 | 0.00 | 0.00 | 70 | 1007.3 |
| 20260504021507 | 54 | 221 | 7.8 | 10.4 | 0.00 | 0.00 | 0.00 | 71 | 1007.1 |
| 20260504020507 | 53 | 240 | 6.1 | 7.8 | 0.00 | 0.00 | 0.00 | 74 | 1008.1 |
| 20260504015506 | 52 | 235 | 6.1 | 7.8 | 0.00 | 0.00 | 0.00 | 76 | 1008.1 |
| 20260504015008 | 52 | 232 | 6.1 | 7.8 | 0.00 | 0.00 | 0.00 | 77 | 1008.1 |
| 20260504014507 | 52 | 224 | 6.1 | 7.8 | 0.00 | 0.00 | 0.00 | 78 | 1008.1 |
| 20260504014007 | 52 | 219 | 4.3 | 6.1 | 0.00 | 0.00 | 0.00 | 78 | 1008.1 |
| 20260504013507 | 52 | 208 | 4.3 | 6.1 | 0.00 | 0.00 | 0.00 | 78 | 1008.1 |
| 20260504012007 | 52 | 212 | 6.1 | 7.8 | 0.00 | 0.00 | 0.00 | 79 | 1008.1 |
| 20260504011507 | 52 | 218 | 6.1 | 7.8 | 0.00 | 0.00 | 0.00 | 79 | 1008.1 |
| 20260504011007 | 52 | 221 | 6.1 | 12.2 | 0.00 | 0.00 | 0.00 | 79 | 1008.1 |
| 20260504010507 | 52 | 206 | 7.8 | 12.2 | 0.00 | 0.00 | 0.00 | 80 | 1008.1 |
| 20260504010006 | 50 | 209 | 6.1 | 12.2 | 0.00 | 0.00 | 0.00 | 81 | 1008.1 |
| 20260504005506 | 50 | 205 | 5.2 | 6.1 | 0.00 | 0.00 | 0.00 | 81 | 1008.1 |
| 20260504005008 | 50 | 180 | 4.3 | 6.1 | 0.00 | 0.00 | 0.00 | 80 | 1008.1 |
| 20260504004506 | 50 | 193 | 4.3 | 4.3 | 0.00 | 0.00 | 0.00 | 79 | 1008.1 |
| 20260504004007 | 50 | 204 | 4.3 | 6.1 | 0.00 | 0.00 | 0.00 | 79 | 1008.1 |
| 20260504003507 | 50 | 206 | 4.3 | 6.1 | 0.00 | 0.00 | 0.00 | 78 | 1008.1 |
| 20260504003007 | 50 | 218 | 6.1 | 6.1 | 0.00 | 0.00 | 0.00 | 78 | 1008.1 |
| 20260504002506 | 50 | 228 | 6.1 | 6.1 | 0.00 | 0.00 | 0.00 | 77 | 1008.1 |
| 20260504001507 | 51 | 245 | 6.1 | 7.8 | 0.00 | 0.00 | 0.00 | 74 | 1008.1 |
| 20260504001007 | 51 | 263 | 7.0 | 7.8 | 0.00 | 0.00 | 0.00 | 73 | 1008.1 |
| 20260504000507 | 51 | 278 | 7.8 | 10.4 | 0.00 | 0.00 | 0.00 | 72 | 1008.1 |
| 20260504000006 | 52 | 275 | 7.8 | 12.2 | 0.00 | 0.00 | 0.00 | 71 | 1008.1 |
| 20260503235507 | 52 | 275 | 10.4 | 13.9 | 0.00 | 0.00 | 0.00 | 69 | 1008.1 |
| 20260503235008 | 52 | 272 | 10.4 | 13.9 | 0.00 | 0.00 | 0.00 | 68 | 1008.1 |
| 20260503234506 | 52 | 272 | 10.4 | 13.9 | 0.00 | 0.00 | 0.00 | 68 | 1008.1 |
| 20260503234007 | 52 | 271 | 12.2 | 17.4 | 0.00 | 0.00 | 0.00 | 67 | 1008.1 |
| 20260503233507 | 52 | 256 | 14.8 | 17.4 | 0.00 | 0.00 | 0.00 | 65 | 1008.1 |
| 20260503233008 | 53 | 261 | 15.6 | 17.4 | 0.00 | 0.00 | 0.00 | 63 | 1008.1 |
| 20260503232506 | 53 | 258 | 15.6 | 19.1 | 0.00 | 0.00 | 0.00 | 62 | 1008.1 |
| 20260503232007 | 53 | 261 | 15.6 | 19.1 | 0.00 | 0.00 | 0.00 | 60 | 1008.1 |
| 20260503231506 | 54 | 254 | 13.9 | 19.1 | 0.00 | 0.00 | 0.00 | 58 | 1008.1 |
| 20260503230507 | 55 | 256 | 11.3 | 15.6 | 0.00 | 0.00 | 0.00 | 57 | 1008.1 |
| 20260503225506 | 55 | 253 | 13.9 | 15.6 | 0.00 | 0.00 | 0.00 | 56 | 1007.1 |
| 20260503225007 | 55 | 255 | 12.2 | 17.4 | 0.00 | 0.00 | 0.00 | 55 | 1007.1 |
| 20260503224506 | 55 | 249 | 14.8 | 17.4 | 0.00 | 0.00 | 0.00 | 55 | 1007.1 |
| 20260503224007 | 55 | 243 | 15.6 | 17.4 | 0.00 | 0.00 | 0.00 | 55 | 1007.1 |
| 20260503223507 | 55 | 246 | 13.9 | 19.1 | 0.00 | 0.00 | 0.00 | 55 | 1007.1 |
| 20260503223007 | 55 | 246 | 15.6 | 20.9 | 0.00 | 0.00 | 0.00 | 54 | 1007.1 |
| 20260503222507 | 55 | 246 | 17.4 | 20.9 | 0.00 | 0.00 | 0.00 | 53 | 1007.1 |
| 20260503222007 | 55 | 250 | 17.4 | 19.1 | 0.00 | 0.00 | 0.00 | 53 | 1006.6 |
| 20260503221007 | 55 | 248 | 14.8 | 19.1 | 0.00 | 0.00 | 0.00 | 53 | 1007.1 |
| 20260503220507 | 55 | 246 | 12.2 | 19.1 | 0.00 | 0.00 | 0.00 | 53 | 1007.1 |
| 20260503215506 | 55 | 260 | 11.3 | 15.6 | 0.00 | 0.00 | 0.00 | 53 | 1007.1 |
| 20260503215007 | 55 | 256 | 13.0 | 19.1 | 0.00 | 0.00 | 0.00 | 52 | 1007.1 |
| 20260503214506 | 56 | 250 | 15.6 | 20.9 | 0.00 | 0.00 | 0.00 | 52 | 1007.1 |
| 20260503214006 | 56 | 258 | 17.4 | 20.9 | 0.00 | 0.00 | 0.00 | 52 | 1007.1 |
| 20260503213507 | 55 | 229 | 15.6 | 20.9 | 0.00 | 0.00 | 0.00 | 53 | 1006.2 |
| 20260503213007 | 55 | 218 | 14.8 | 20.9 | 0.00 | 0.00 | 0.00 | 53 | 1007.1 |
| 20260503212506 | 55 | 221 | 13.9 | 20.9 | 0.00 | 0.00 | 0.00 | 52 | 1007.1 |
| 20260503212007 | 55 | 289 | 13.9 | 19.1 | 0.00 | 0.00 | 0.00 | 52 | 1007.1 |
| 20260503211007 | 56 | 260 | 12.2 | 17.4 | 0.00 | 0.00 | 0.00 | 52 | 1007.1 |
| 20260503210507 | 56 | 272 | 13.0 | 17.4 | 0.00 | 0.00 | 0.00 | 51 | 1007.1 |
| 20260503210006 | 56 | 253 | 12.2 | 17.4 | 0.00 | 0.00 | 0.00 | 52 | 1007.1 |
| 20260503205506 | 56 | 253 | 13.9 | 17.4 | 0.00 | 0.00 | 0.00 | 51 | 1007.1 |
| 20260503205007 | 56 | 241 | 10.4 | 15.6 | 0.00 | 0.00 | 0.00 | 51 | 1007.1 |
| 20260503204506 | 57 | 278 | 10.4 | 15.6 | 0.00 | 0.00 | 0.00 | 51 | 1007.1 |
| 20260503204007 | 57 | 283 | 12.2 | 17.4 | 0.00 | 0.00 | 0.00 | 51 | 1007.1 |
| 20260503203506 | 57 | 280 | 13.9 | 17.4 | 0.00 | 0.00 | 0.00 | 50 | 1007.1 |
| 20260503203007 | 57 | 243 | 13.9 | 17.4 | 0.00 | 0.00 | 0.00 | 50 | 1007.1 |
| 20260503202507 | 57 | 249 | 12.2 | 17.4 | 0.00 | 0.00 | 0.00 | 50 | 1007.1 |
| 20260503202007 | 57 | 279 | 12.2 | 15.6 | 0.00 | 0.00 | 0.00 | 50 | 1007.1 |
| 20260503201506 | 56 | 247 | 12.2 | 19.1 | 0.00 | 0.00 | 0.00 | 50 | 1007.1 |
| 20260503201007 | 56 | 276 | 16.5 | 22.6 | 0.00 | 0.00 | 0.00 | 50 | 1007.1 |
| 20260503200507 | 57 | 264 | 15.6 | 22.6 | 0.00 | 0.00 | 0.00 | 50 | 1007.1 |
| 20260503200006 | 57 | 249 | 14.8 | 17.4 | 0.00 | 0.00 | 0.00 | 50 | 1008.1 |
| 20260503195506 | 57 | 258 | 11.3 | 19.1 | 0.00 | 0.00 | 0.00 | 51 | 1008.1 |
| 20260503195006 | 56 | 241 | 12.2 | 19.1 | 0.00 | 0.00 | 0.00 | 51 | 1008.1 |
| 20260503194007 | 56 | 262 | 13.9 | 17.4 | 0.00 | 0.00 | 0.00 | 52 | 1008.1 |
| 20260503193506 | 56 | 260 | 12.2 | 19.1 | 0.00 | 0.00 | 0.00 | 53 | 1008.1 |
| 20260503193007 | 55 | 253 | 13.9 | 19.1 | 0.00 | 0.00 | 0.00 | 53 | 1008.1 |
| 20260503192506 | 55 | 239 | 12.2 | 19.1 | 0.00 | 0.00 | 0.00 | 55 | 1008.2 |
| 20260503192007 | 55 | 221 | 13.0 | 17.4 | 0.00 | 0.00 | 0.00 | 56 | 1009.1 |
| 20260503191506 | 55 | 255 | 13.0 | 17.4 | 0.00 | 0.00 | 0.00 | 59 | 1009.1 |
| 20260503191006 | 54 | 271 | 9.6 | 17.4 | 0.00 | 0.00 | 0.00 | 63 | 1009.1 |
| 20260503190506 | 48 | 65 | 3.5 | 7.8 | 0.00 | 0.00 | 0.00 | 69 | 1010.0 |
| 20260503190006 | 48 | 89 | 4.3 | 7.8 | 0.00 | 0.00 | 0.00 | 68 | 1009.1 |
| 20260503185506 | 47 | 67 | 4.3 | 7.8 | 0.00 | 0.00 | 0.00 | 69 | 1009.6 |
| 20260503185007 | 46 | 80 | 6.1 | 10.4 | 0.00 | 0.00 | 0.00 | 69 | 1010.1 |
| 20260503184506 | 46 | 67 | 6.1 | 10.4 | 0.00 | 0.00 | 0.00 | 68 | 1010.1 |
| 20260503184007 | 46 | 83 | 6.1 | 6.1 | 0.00 | 0.00 | 0.00 | 68 | 1010.1 |
| 20260503183506 | 46 | 90 | 4.3 | 6.1 | 0.00 | 0.00 | 0.00 | 68 | 1010.1 |
| 20260503183007 | 47 | 94 | 4.3 | 6.1 | 0.00 | 0.00 | 0.00 | 68 | 1010.1 |
| 20260503182506 | 47 | 52 | 4.3 | 6.1 | 0.00 | 0.00 | 0.00 | 67 | 1010.1 |
| 20260503182007 | 48 | 41 | 4.3 | 4.3 | 0.00 | 0.00 | 0.00 | 67 | 1010.1 |
| 20260503181506 | 48 | 29 | 4.3 | 6.1 | 0.00 | 0.00 | 0.00 | 67 | 1010.1 |
| 20260503181006 | 48 | 34 | 4.3 | 6.1 | 0.00 | 0.00 | 0.00 | 67 | 1010.1 |
| 20260503180506 | 48 | 18 | 4.3 | 7.8 | 0.00 | 0.00 | 0.00 | 67 | 1010.1 |
| 20260503180005 | 47 | 16 | 6.1 | 7.8 | 0.00 | 0.00 | 0.00 | 67 | 1010.1 |
| 20260503175506 | 47 | 21 | 4.3 | 6.1 | 0.00 | 0.00 | 0.00 | 67 | 1010.1 |
| 20260503174506 | 48 | 33 | 4.3 | 6.1 | 0.00 | 0.00 | 0.00 | 66 | 1010.1 |
| 20260503174007 | 48 | 35 | 4.3 | 6.1 | 0.00 | 0.00 | 0.00 | 66 | 1010.1 |
| 20260503173507 | 48 | 23 | 4.3 | 7.8 | 0.00 | 0.00 | 0.00 | 66 | 1010.1 |
| 20260503172506 | 48 | 353 | 4.3 | 7.8 | 0.00 | 0.00 | 0.00 | 66 | 1010.1 |
| 20260503172006 | 48 | 13 | 4.3 | 6.1 | 0.00 | 0.00 | 0.00 | 67 | 1010.1 |
| 20260503171506 | 48 | 24 | 4.3 | 7.8 | 0.00 | 0.00 | 0.00 | 66 | 1010.7 |
| 20260503171007 | 48 | 14 | 5.2 | 7.8 | 0.00 | 0.00 | 0.00 | 66 | 1011.0 |
| 20260503170506 | 48 | 22 | 6.1 | 6.1 | 0.00 | 0.00 | 0.00 | 66 | 1011.1 |
| 20260503151007 | 47 | 56 | 6.1 | 6.1 | 0.00 | 0.00 | 0.00 | 66 | 1012.1 |
| 20260503150506 | 48 | 51 | 4.3 | 7.8 | 0.00 | 0.00 | 0.00 | 65 | 1012.1 |
| 20260503131006 | 46 | 256 | 7.8 | 12.2 | 0.00 | 0.00 | 0.00 | 64 | 1013.1 |
| 20260503130506 | 46 | 257 | 7.8 | 12.2 | 0.00 | 0.00 | 0.00 | 64 | 1013.1 |
| 20260503110508 | 39 | 259 | 7.8 | 10.4 | 0.00 | 0.00 | 0.00 | 79 | 1013.7 |
| 20260503090508 | 39 | 257 | 7.8 | 12.2 | 0.00 | 0.00 | 0.00 | 78 | 1013.1 |
| 20260503081507 | 40 | 247 | 7.8 | 7.8 | 0.00 | 0.00 | 0.00 | 78 | 1013.1 |
| 20260503080508 | 40 | 249 | 6.1 | 7.8 | 0.00 | 0.00 | 0.00 | 78 | 1013.1 |
| 20260503072506 | 41 | 252 | 7.8 | 7.8 | 0.00 | 0.00 | 0.00 | 77 | 1013.1 |
| 20260503072007 | 41 | 259 | 7.8 | 7.8 | 0.00 | 0.00 | 0.00 | 77 | 1013.1 |
| 20260503071507 | 41 | 258 | 7.8 | 7.8 | 0.00 | 0.00 | 0.00 | 77 | 1013.1 |
| 20260503054507 | 42 | 256 | 6.1 | 7.8 | 0.00 | 0.00 | 0.00 | 72 | 1013.1 |
| 20260503054008 | 43 | 258 | 6.1 | 7.8 | 0.00 | 0.00 | 0.00 | 72 | 1013.1 |